Location: Unspecified
(0.0000°N, 0.0000°E)
Time: 17:50:41
(UTC+00:00)

STARLINK 1062 - Pass Details

Date: 17 January 2020
Orbit: 548 x 551 km, 53.0° (Epoch: 17 January)

Event Time Altitude Azimuth Distance (km) Brightness Sun altitude
Rises 05:29:14 0° 179° (S) 2,715 7.5 -9.5°
Reaches altitude 10° 05:33:01 10° 144° (SE) 1,817 7.3 -8.6°
Maximum altitude 05:34:19 11° 125° (SE) 1,737 7.6 -8.3°
Drops below altitude 10° 05:35:36 10° 107° (ESE) 1,815 8.0 -8.0°
Sets 05:39:22 0° 72° (ENE) 2,703 8.0 -7.1°
